Memphis, TN

12:58 AM CDT on April 24, 2018 (GMT -0500)
Memphis International

Weather History for KMEM - June, 2012

Change the Weather History Date:

Tuesday, June 26, 2012

  Actual Average Record
Temperature  
Mean Temperature 85 °F 82 °F  
Max Temperature 91 °F 91 °F 102 °F (1954)
Min Temperature 78 °F 73 °F 58 °F (1958)
Degree Days  
Heating Degree Days 0 0  
Month to date heating degree days 0 0  
Since 1 June heating degree days 0 0  
Since 1 July heating degree days 2171 2964  
Cooling Degree Days 20 17  
Month to date cooling degree days 374 372  
Year to date cooling degree days 954 693  
Since 1 June cooling degree days 374 372  
Growing Degree Days 34 (Base 50)    
Moisture  
Dew Point 54 °F    
Average Humidity 39    
Maximum Humidity 58    
Minimum Humidity 20    
Precipitation  
Precipitation 0.00 in 0.10 in 2.11 in (1900)
Month to date precipitation 1.38 3.16  
Year to date precipitation 14.70 27.44  
Snow  
Snow 0.00 in 0.00 in - ()
Month to date snowfall 0.0  
Since 1 June snowfall 0.0  
Since 1 July snowfall 3.8  
Snow Depth -    
Sea Level Pressure  
Sea Level Pressure 29.84 in    
Wind  
Wind Speed 12 mph (NE)    
Max Wind Speed 18 mph    
Max Gust Speed 25 mph    
Visibility 10 miles    
Events      
T = Trace of Precipitation, MM = Missing Value Source: NWS Daily Summary

Daily Weather History Graph

Daily Weather History Graph

Search for Another Location

Airport or City:

Astronomy

Jun. 26, 2012 Rise Set
Actual Time 5:47 AM CDT 8:17 PM CDT
Civil Twilight 5:18 AM CDT 8:47 PM CDT
Nautical Twilight 4:41 AM CDT 9:24 PM CDT
Astronomical Twilight 4:00 AM CDT 10:04 PM CDT
Moon 12:46 PM CDT (6/26) 12:02 AM CDT (6/26)
Length of Visible Light 15h 29m
Length of Day
14h 30m
Waxing Crescent, 45% of the Moon is Illuminated
Jun 26
Waxing Crescent
Jun 26
First Quarter
Jul 3
Full
Jul 10
Last Quarter
Jul 18
New

Hourly Weather History & Observations

Time (CDT) Temp. Heat Index Dew Point Humidity Pressure Visibility Wind Dir Wind Speed Gust Speed Precip Events Conditions
12:54 AM 87.1 °F 88.9 °F 64.9 °F 48% 29.78 in 10.0 mi NE 15.0 mph - N/A   Clear
1:54 AM 84.9 °F 86.6 °F 64.9 °F 51% 29.78 in 10.0 mi ENE 13.8 mph - N/A   Clear
2:54 AM 82.9 °F 84.6 °F 64.9 °F 54% 29.78 in 10.0 mi ENE 10.4 mph - N/A   Clear
3:54 AM 82.0 °F 83.8 °F 64.9 °F 56% 29.79 in 10.0 mi NE 11.5 mph - N/A   Clear
4:54 AM 80.1 °F 81.7 °F 64.0 °F 58% 29.81 in 10.0 mi NE 10.4 mph - N/A   Partly Cloudy
5:54 AM 78.1 °F - 63.0 °F 60% 29.83 in 10.0 mi NE 12.7 mph - N/A   Partly Cloudy
6:54 AM 78.1 °F - 62.1 °F 58% 29.85 in 10.0 mi NE 10.4 mph - N/A   Partly Cloudy
7:54 AM 79.0 °F - 60.1 °F 52% 29.87 in 10.0 mi East 12.7 mph - N/A   Partly Cloudy
8:54 AM 81.0 °F 81.0 °F 57.0 °F 44% 29.87 in 10.0 mi East 15.0 mph - N/A   Partly Cloudy
9:54 AM 84.0 °F 82.6 °F 54.0 °F 35% 29.88 in 10.0 mi ENE 15.0 mph 21.9 mph N/A   Partly Cloudy
10:54 AM 86.0 °F 84.2 °F 54.0 °F 33% 29.88 in 10.0 mi NE 13.8 mph 20.7 mph N/A   Clear
11:54 AM 87.1 °F - 52.0 °F 30% 29.87 in 10.0 mi ENE 11.5 mph 19.6 mph N/A   Clear
12:54 PM 88.0 °F - 48.9 °F 26% 29.87 in 10.0 mi North 9.2 mph - N/A   Clear
1:54 PM 90.0 °F - 48.9 °F 24% 29.86 in 10.0 mi NNE 13.8 mph 21.9 mph N/A   Clear
2:54 PM 91.0 °F - 45.0 °F 20% 29.86 in 10.0 mi NE 10.4 mph 18.4 mph N/A   Clear
3:54 PM 91.0 °F - 46.0 °F 21% 29.85 in 10.0 mi NE 12.7 mph 21.9 mph N/A   Clear
4:54 PM 91.0 °F - 45.0 °F 20% 29.85 in 10.0 mi NE 12.7 mph - N/A   Clear
5:54 PM 89.1 °F - 44.1 °F 21% 29.83 in 10.0 mi NNE 16.1 mph 21.9 mph N/A   Clear
6:54 PM 88.0 °F - 43.0 °F 21% 29.83 in 10.0 mi NE 13.8 mph 19.6 mph N/A   Clear
7:54 PM 84.9 °F - 45.0 °F 25% 29.83 in 10.0 mi NNE 8.1 mph - N/A   Clear
8:54 PM 81.0 °F - 48.0 °F 31% 29.84 in 10.0 mi NNE 5.8 mph - N/A   Clear
9:54 PM 79.0 °F - 50.0 °F 36% 29.85 in 10.0 mi NE 5.8 mph - N/A   Clear
10:54 PM 78.1 °F - 50.0 °F 37% 29.87 in 10.0 mi NNE 6.9 mph - N/A   Clear
11:54 PM 75.9 °F - 50.0 °F 40% 29.88 in 9.0 mi Variable 6.9 mph - N/A   Clear